Theta_e
311 310 309 310 310 310 311 313 315 314 314 316 316 318 323 325 323 320 319 319 319 321 321 320 320 320 318 318 318 318 319 319 319 319 318 319 319 318 318 318 318 318 318 318 317 317 317 317 318 318 319 319 318 319 320 319 320 321 320 321 321 319 321 319 317 319 321 321 323 323 322 323 322 322 325 323 324 323 320 321 321 321 328 332 332 336 338
311 310 309 310 311 310 312 314 314 314 315 315 315 318 324 325 320 319 318 318 320 321 322 321 320 319 319 318 319 318 319 319 319 318 319 319 319 318 318 318 318 319 319 318 318 318 317 317 318 318 319 318 318 320 319 319 320 320 319 321 321 318 320 320 317 317 318 318 319 320 320 322 321 322 324 324 324 325 323 324 323 321 324 327 331 336 337
311 310 309 310 311 310 312 314 314 314 315 316 316 320 325 325 322 321 319 318 320 320 320 321 320 319 319 319 318 318 318 318 318 318 318 319 319 319 318 318 318 318 318 318 319 318 317 318 318 318 318 317 318 319 318 319 319 319 320 322 321 320 321 321 318 317 317 318 318 317 318 320 321 322 324 323 323 324 322 321 321 320 322 326 332 336 337
311 310 309 311 311 310 311 314 314 314 314 316 319 322 327 326 323 323 320 319 320 319 319 320 319 320 320 319 318 318 318 318 317 318 319 319 319 319 319 319 318 318 318 318 318 318 318 319 319 318 319 317 318 318 318 318 318 318 320 321 319 320 321 323 322 320 319 320 320 321 320 319 319 320 322 322 322 324 323 321 320 321 326 332 335 337 336
311 310 309 311 312 310 311 313 314 314 315 317 320 324 328 325 320 322 322 322 321 320 320 320 319 319 320 319 318 318 318 318 318 318 318 318 319 319 319 318 319 319 319 319 318 318 318 319 318 318 319 318 318 317 318 318 316 316 319 319 318 320 320 322 323 321 321 321 321 321 321 319 318 319 320 321 322 323 321 320 321 323 328 333 338 338 334
311 310 309 312 313 310 311 313 313 315 317 319 322 325 326 322 319 320 321 321 322 320 319 320 320 319 319 318 318 318 318 317 318 318 318 318 318 320 320 319 319 320 320 321 322 321 320 319 319 319 320 319 317 317 317 318 317 317 319 318 318 320 319 319 320 320 320 320 319 320 320 319 320 320 319 319 321 321 320 321 323 323 328 333 340 338 335
311 311 310 312 313 311 311 313 314 317 320 321 323 324 323 322 321 319 319 319 320 319 317 320 320 318 319 319 317 319 319 317 317 317 319 319 318 319 321 320 318 319 318 321 324 323 322 322 322 321 320 319 318 317 318 318 317 318 319 320 320 319 319 321 319 318 319 319 319 319 319 319 319 319 319 319 320 320 320 322 323 325 331 336 339 337 337
312 311 310 312 314 312 311 312 313 317 321 323 323 321 322 324 322 322 322 321 319 319 319 321 321 319 320 320 317 318 319 318 317 317 318 320 319 318 320 319 319 319 319 321 324 323 322 323 323 322 321 321 319 319 320 319 319 318 318 319 320 318 318 321 320 318 318 318 318 318 318 318 317 318 319 318 318 319 321 323 323 327 333 336 337 337 336
312 311 310 311 314 313 311 312 312 313 318 324 326 321 321 324 323 323 325 322 318 320 320 321 322 321 321 320 318 319 318 316 317 317 317 319 320 319 319 319 318 319 321 322 322 321 321 322 321 321 321 321 320 321 322 321 320 320 319 319 320 319 318 320 319 317 317 318 318 318 317 317 316 316 317 317 317 317 320 323 324 327 333 335 336 335 334
312 311 310 311 314 314 312 312 313 312 314 321 325 323 322 324 324 324 325 323 318 319 321 320 321 320 319 318 318 318 318 317 320 320 318 317 318 318 318 319 319 320 321 322 321 320 320 320 320 320 320 320 320 320 320 320 319 320 320 320 320 320 319 319 319 317 316 317 318 317 316 315 313 315 317 318 318 317 319 322 324 328 333 335 334 334 334
312 311 311 311 313 314 312 312 313 312 314 319 324 324 321 322 325 327 326 324 320 319 322 321 320 320 318 318 319 318 318 319 320 320 319 317 316 317 318 319 320 320 321 321 319 319 319 318 318 318 318 318 319 319 319 319 319 318 319 319 320 320 319 319 320 318 316 317 317 317 315 313 314 317 318 317 318 318 318 322 325 328 331 333 333 333 332
311 312 311 310 312 314 313 313 313 313 314 318 324 325 319 317 324 329 326 323 322 320 321 320 319 320 319 319 320 319 318 319 318 319 319 318 317 319 319 320 321 320 319 318 317 316 317 317 316 316 317 317 318 318 318 318 318 318 318 318 318 320 320 319 319 318 317 317 317 316 315 315 318 320 320 320 319 318 319 325 327 327 330 332 333 331 331
312 312 311 311 311 313 313 313 313 313 314 314 320 324 318 314 322 329 327 325 324 321 320 319 317 320 320 320 320 319 318 319 318 319 319 318 319 319 318 319 318 317 316 316 316 317 318 318 316 316 317 317 317 317 317 316 317 317 318 317 317 319 320 319 318 318 318 316 316 316 318 320 321 322 321 322 323 322 324 327 328 328 329 331 332 331 331
312 312 312 311 311 312 313 314 313 313 314 314 319 325 320 312 318 327 329 327 325 319 319 321 320 320 321 320 320 319 320 319 319 320 320 319 320 319 317 317 316 315 315 316 317 318 319 319 318 317 317 317 317 317 316 316 317 317 317 318 317 318 320 319 318 318 318 316 315 318 320 320 320 322 321 322 323 323 325 325 326 328 329 330 330 330 330
311 312 312 311 311 311 312 313 313 314 314 314 319 325 322 311 313 323 328 328 325 320 321 323 321 320 321 320 319 320 321 320 320 321 319 318 320 320 317 317 316 315 315 317 318 319 320 320 319 318 318 318 318 319 318 318 318 317 317 319 318 318 320 321 319 319 318 316 315 317 318 318 319 321 322 320 320 321 323 324 325 327 328 329 330 328 329
311 312 312 311 311 311 311 312 314 314 314 313 317 324 324 315 311 317 324 328 326 321 320 320 318 318 320 320 319 318 321 322 322 321 320 320 321 319 317 318 317 316 316 318 319 319 319 319 318 318 320 322 321 321 321 320 320 319 317 318 318 318 319 320 320 319 317 316 315 316 316 318 321 322 322 321 320 322 322 322 322 325 326 327 328 328 327
311 312 312 312 311 311 311 312 312 313 314 313 314 320 322 316 311 314 322 327 326 320 317 316 315 318 321 322 320 319 320 321 321 320 322 323 322 320 319 318 317 318 318 318 319 319 318 319 317 316 320 323 322 321 321 321 321 321 319 317 317 318 318 318 318 318 317 317 316 315 317 321 322 321 321 321 322 322 320 317 319 323 325 325 326 325 324
311 312 312 311 311 311 311 311 311 312 313 313 313 318 321 317 312 314 322 326 326 321 319 316 315 319 322 322 321 321 320 320 320 320 321 322 321 321 321 319 318 319 318 317 319 319 318 318 318 317 318 321 321 320 320 319 320 322 321 319 317 318 318 317 317 317 316 316 316 316 319 323 322 320 320 320 319 317 316 317 321 323 324 323 323 322 322
311 312 312 311 311 311 311 311 311 311 312 311 312 317 321 317 311 312 318 324 325 324 321 317 316 318 319 318 319 319 318 318 319 319 320 321 322 321 320 319 318 319 319 318 319 319 318 318 319 318 318 320 321 320 319 319 319 321 322 320 318 318 318 317 317 316 316 316 316 317 320 324 322 320 319 317 316 317 318 321 323 323 322 322 321 321 322
312 312 312 311 311 311 311 311 312 311 311 311 310 314 320 318 312 311 315 319 323 325 323 319 317 318 317 317 318 320 320 319 319 319 320 321 322 321 320 320 319 318 320 320 319 319 319 318 320 320 319 319 321 320 319 318 319 321 322 321 320 319 318 317 317 317 316 316 315 316 320 323 321 319 318 317 319 321 323 324 323 322 321 321 321 321 321
312 312 312 311 311 311 310 310 311 311 312 312 310 314 322 323 316 311 311 314 319 325 325 321 318 317 317 318 319 319 320 320 321 322 322 322 322 320 320 322 321 320 321 321 320 321 320 319 320 320 318 319 320 319 319 318 319 321 322 320 320 320 319 318 319 318 317 317 317 318 321 322 321 320 321 321 323 324 324 322 321 321 321 320 320 321 320
311 313 312 311 311 311 310 310 310 310 311 312 310 313 322 325 320 313 310 311 316 321 323 321 319 317 317 318 318 317 318 319 321 322 321 321 322 321 319 321 321 321 322 321 320 321 321 321 321 320 319 321 322 321 320 318 317 319 321 320 319 321 321 321 322 321 319 320 320 321 321 321 321 322 323 323 323 323 322 321 320 320 319 319 320 321 321
312 313 312 312 312 311 311 310 310 309 310 311 311 312 317 320 318 313 312 316 320 322 322 322 321 319 317 317 316 316 317 317 318 319 320 320 321 321 320 321 322 322 321 321 321 321 321 321 321 320 320 321 322 321 321 320 319 321 322 320 318 320 322 322 322 321 321 321 322 322 321 321 321 322 322 322 322 321 321 320 320 320 319 319 320 321 321
312 313 312 312 312 312 312 311 311 310 309 310 312 312 312 315 316 312 314 321 324 323 323 323 322 321 321 319 318 317 317 317 317 319 320 319 319 321 322 322 322 322 322 322 322 322 321 320 320 320 320 321 320 320 321 321 320 321 322 321 320 319 320 320 321 320 320 321 322 321 321 321 320 321 321 321 320 319 318 318 319 320 320 319 319 320 321
313 313 312 313 312 312 312 312 312 312 310 310 311 311 313 318 318 314 315 323 324 323 323 323 321 321 321 318 317 318 318 318 318 318 319 318 318 320 321 322 323 322 322 322 322 322 321 321 320 320 321 321 320 320 320 320 319 319 320 322 322 321 319 318 319 319 319 320 321 321 321 320 320 319 319 319 319 319 318 318 320 320 319 319 319 318 318
313 313 312 313 312 312 312 312 312 312 311 310 311 311 312 316 316 313 316 323 325 323 323 322 322 322 320 318 319 320 319 318 318 318 319 319 319 319 320 321 322 322 322 321 321 321 321 321 320 320 320 320 320 320 320 320 319 319 320 320 320 320 320 319 319 318 318 319 321 320 320 320 319 319 318 318 319 319 318 319 320 319 319 318 318 316 316
313 313 313 313 313 313 313 312 312 312 311 311 312 312 313 313 314 314 317 321 323 324 323 322 323 322 321 320 320 319 318 317 317 318 319 319 319 319 319 319 320 322 323 322 321 321 321 321 320 320 320 321 320 320 320 320 320 320 320 320 319 320 321 321 321 320 319 320 321 320 320 320 319 318 317 317 318 318 318 318 317 317 317 317 317 316 316
313 313 313 313 313 313 313 313 312 311 311 312 311 312 314 314 315 317 317 318 321 324 324 323 322 322 321 321 319 319 319 319 318 319 319 319 319 319 319 319 320 321 322 322 321 322 321 321 321 320 320 320 320 319 320 320 320 319 319 319 319 320 321 321 321 321 321 321 321 321 321 321 320 319 318 317 317 317 317 317 316 316 316 316 316 316 315
313 313 313 313 314 313 313 312 312 311 312 312 312 315 318 318 319 320 319 317 319 322 322 323 322 322 322 321 319 319 320 319 319 320 320 320 320 320 320 321 321 321 321 321 321 322 321 320 320 319 318 319 319 319 319 319 319 319 320 319 318 319 320 320 321 321 321 320 319 320 321 321 319 319 318 318 317 317 317 317 316 316 315 315 315 315 315
313 313 313 314 313 313 312 312 312 312 312 313 315 320 323 323 322 321 320 318 319 321 322 323 323 322 321 321 320 320 321 320 320 321 321 320 321 321 321 321 321 321 321 321 321 320 319 319 319 318 318 319 318 318 318 318 319 320 320 319 318 317 318 319 320 320 320 319 318 319 320 320 319 318 318 318 317 317 316 316 316 316 315 315 314 314 314
313 313 314 313 312 312 312 312 312 313 314 316 319 323 325 325 323 322 320 318 319 321 322 323 323 322 322 321 321 321 321 321 321 321 321 321 321 321 320 321 321 321 321 321 321 319 319 318 318 318 319 319 318 317 318 318 318 319 319 319 319 318 318 318 319 319 319 320 319 318 319 319 319 318 318 318 317 316 316 316 316 315 315 314 314 314 313
313 313 313 313 312 312 312 312 314 316 317 318 319 321 322 321 320 319 317 316 317 320 322 323 323 323 323 322 321 321 321 321 322 321 321 321 321 321 320 320 321 321 320 320 320 319 319 319 318 318 318 318 317 317 317 317 317 318 318 318 318 318 318 318 318 318 318 319 319 319 319 319 318 318 318 318 317 317 316 316 316 316 315 314 314 314 313
313 313 312 312 312 312 314 315 316 318 319 319 319 319 318 317 317 316 315 316 319 321 322 323 323 323 323 322 322 321 321 321 322 321 321 321 321 320 320 320 321 320 319 319 319 319 318 319 319 318 317 317 317 317 317 317 318 318 318 318 318 318 317 317 317 317 318 318 318 319 319 318 318 318 318 318 317 316 316 315 315 316 315 315 314 313 312
313 312 312 312 313 314 316 318 318 319 320 321 322 321 319 318 317 315 315 318 321 323 322 322 323 322 322 322 321 321 320 320 321 321 321 321 320 320 320 320 320 320 319 318 319 319 319 319 319 318 317 317 317 317 317 317 318 318 317 317 317 317 316 316 316 317 317 317 318 319 318 318 318 317 317 317 316 316 316 315 315 315 315 314 314 313 312
313 312 312 314 316 316 318 318 318 320 321 322 323 322 320 319 318 316 315 319 322 324 324 323 321 321 322 322 322 321 320 319 320 320 320 320 320 319 320 320 319 319 318 318 318 319 319 318 317 317 318 318 317 316 316 317 317 317 317 317 317 317 317 317 317 317 317 317 317 318 318 318 318 317 316 317 316 316 316 315 315 315 315 314 314 314 313
312 313 314 316 318 319 320 320 319 320 322 323 322 320 318 317 317 316 316 318 321 324 324 323 321 322 322 321 321 321 320 319 320 320 319 320 319 318 319 319 319 319 319 318 318 318 319 318 317 317 317 318 317 316 316 317 317 317 317 317 317 317 317 317 317 317 318 318 318 318 318 318 318 317 316 316 316 316 315 315 315 315 315 314 314 313 313
313 313 314 317 319 321 322 322 320 320 320 320 318 317 316 317 318 319 319 319 320 322 322 323 322 322 322 320 321 321 320 319 319 319 319 320 319 318 318 318 318 318 318 318 317 317 317 317 316 316 316 316 316 316 316 316 315 315 316 316 315 315 315 316 317 317 318 318 318 318 318 318 318 318 317 316 316 315 315 315 315 315 314 314 314 313 313
313 314 315 317 320 322 323 323 322 320 318 316 316 318 320 320 321 322 323 322 321 321 321 322 322 322 322 321 321 320 319 318 318 319 319 319 318 317 318 318 317 317 317 316 317 317 316 316 316 316 316 316 315 314 315 315 314 314 315 315 315 314 314 314 315 315 316 317 317 317 317 317 317 317 317 317 316 316 315 315 315 314 314 314 314 314 313
314 317 319 320 321 322 322 322 320 318 317 318 319 322 323 323 323 323 324 323 322 322 322 322 322 321 320 320 320 320 319 318 318 318 318 318 317 316 316 317 317 317 316 315 316 317 316 316 316 316 316 316 315 315 315 315 315 314 314 315 315 314 313 314 314 313 314 314 314 315 316 316 316 317 317 317 316 315 315 315 315 314 314 314 314 313 313
317 318 320 321 321 321 321 319 317 317 319 320 321 323 323 323 322 322 323 322 322 322 322 322 321 321 320 319 320 321 320 318 318 317 317 317 317 316 315 316 317 316 315 315 317 317 316 315 315 315 315 315 315 315 315 315 314 314 314 314 313 312 313 314 314 314 314 313 312 313 314 314 315 316 316 316 316 315 315 315 315 314 314 314 313 312 312
320 320 321 321 321 320 320 319 319 320 321 322 322 322 322 322 323 323 323 322 321 321 321 321 320 321 320 319 320 321 320 319 319 318 317 318 318 317 316 317 317 315 315 316 316 316 315 314 314 314 316 316 315 314 314 314 314 314 314 313 312 312 313 313 314 314 314 313 312 312 312 313 314 314 314 315 315 315 315 315 315 314 313 313 312 312 312
318 318 318 319 319 319 319 320 321 322 322 322 322 322 321 321 324 324 323 322 321 321 321 320 320 321 320 319 319 320 320 319 318 318 318 318 318 316 315 317 317 316 315 316 316 316 315 314 313 314 314 314 314 314 314 314 314 314 314 313 313 313 313 314 313 314 313 313 312 312 312 312 313 313 314 314 314 314 315 315 315 314 312 312 312 312 312
313 313 314 316 319 321 321 321 321 321 321 320 320 320 320 321 323 323 322 322 322 321 321 321 320 320 320 319 319 320 320 319 318 318 318 318 318 317 316 316 317 316 316 315 315 315 314 314 315 315 313 313 313 314 313 313 313 313 313 313 313 313 313 313 312 312 313 312 312 312 312 311 311 312 312 313 313 313 313 313 313 313 312 311 311 312 312
313 316 317 319 321 321 320 320 321 322 321 320 319 319 320 322 323 322 321 322 323 322 321 320 320 320 320 320 320 320 320 319 318 318 317 317 317 317 317 316 316 316 316 316 315 314 314 314 315 315 314 313 313 313 313 313 313 312 311 311 311 311 311 311 311 311 311 311 311 311 312 312 311 311 311 311 312 312 313 313 312 312 311 311 311 312 312
317 319 319 319 320 320 319 320 321 321 321 321 319 319 321 322 323 322 321 320 321 321 320 320 320 319 319 319 320 319 318 318 318 318 318 318 317 316 316 316 316 315 315 315 314 314 313 313 314 314 313 312 312 312 312 311 310 309 309 309 309 309 309 309 309 309 309 310 310 310 310 311 311 311 310 310 311 312 313 313 313 312 311 311 311 312 312
319 320 318 318 319 319 319 318 318 318 320 321 321 321 322 322 322 322 321 320 321 321 320 319 319 319 318 318 318 318 317 318 318 318 318 317 316 315 315 315 316 316 315 314 313 313 313 313 314 313 312 311 310 310 310 309 308 307 307 307 307 307 307 307 307 308 308 309 309 309 309 309 310 310 310 310 310 310 311 313 313 312 311 311 311 312 312
318 318 317 317 318 317 317 318 318 318 321 323 322 322 322 322 323 322 321 319 320 320 319 319 319 319 318 317 317 316 317 317 316 316 316 316 315 315 314 314 315 314 313 313 313 313 313 313 313 311 310 309 308 308 307 307 307 306 306 306 306 306 305 306 306 307 307 308 308 308 308 308 309 310 310 310 310 310 310 311 313 312 311 311 311 311 311
319 318 317 317 317 318 318 319 320 322 323 323 322 322 322 322 323 322 321 320 320 319 319 319 319 318 317 316 315 314 315 315 314 314 314 314 314 315 315 314 314 313 313 312 313 313 312 312 310 309 308 307 307 307 306 306 306 305 305 305 305 304 304 305 305 306 306 306 307 307 307 307 308 309 309 310 310 310 309 310 312 312 311 310 310 310 310
319 319 319 318 318 318 319 320 322 324 324 323 322 322 322 323 323 322 321 321 320 319 318 319 318 316 316 315 314 313 313 314 313 313 313 313 313 314 313 313 313 313 313 313 313 312 311 309 308 307 307 306 306 306 306 306 306 306 306 305 305 304 304 304 305 305 305 305 305 306 306 306 306 307 307 308 309 309 308 308 310 311 311 310 309 310 310
318 318 318 318 318 319 319 319 322 323 322 321 322 323 323 322 323 322 321 321 320 319 319 320 318 316 316 314 312 312 313 313 313 312 312 312 313 313 313 313 313 313 313 313 312 310 309 308 307 307 306 306 306 306 307 306 306 306 306 306 305 305 305 304 304 304 304 304 304 305 305 304 305 305 305 306 308 309 308 307 308 310 310 310 309 310 310
317 317 317 317 318 319 319 319 321 323 322 322 322 323 322 323 323 322 321 321 320 320 320 320 318 315 314 313 311 311 313 313 312 312 312 312 312 313 313 313 313 313 312 311 309 308 307 307 306 306 306 306 306 306 306 306 305 306 305 305 306 305 305 304 304 304 304 304 304 304 304 305 304 303 304 305 306 308 308 308 307 308 309 309 309 309 309
317 317 317 318 318 319 320 322 323 323 322 322 322 321 322 323 322 321 320 320 321 320 320 319 318 316 314 312 313 313 313 313 312 312 312 312 314 314 313 312 312 311 310 308 307 307 307 306 306 306 306 306 306 306 306 305 305 305 305 304 305 305 305 304 304 304 305 305 304 304 305 304 303 303 303 304 305 306 308 308 308 308 309 308 308 308 309
Wind_Speed
20 21 22 23 23 25 25 22 21 19 14 9 9 12 13 10 2 5 1 4 5 8 5 1 1 3 3 2 1 2 4 5 5 3 3 4 2 1 0 1 3 2 1 2 4 4 2 4 4 4 4 4 7 4 3 6 6 4 6 6 6 4 3 4 2 0 1 3 4 2 4 5 6 6 5 7 9 9 7 3 4 2 5 8 6 5 6
19 20 21 22 22 24 23 20 19 19 17 15 14 14 14 11 4 4 3 2 6 7 3 1 1 3 2 2 2 1 2 5 7 6 5 6 4 3 2 1 1 2 2 2 1 2 3 1 2 2 2 3 5 5 5 7 6 5 7 7 7 4 3 3 2 2 5 5 3 4 7 5 5 7 5 7 7 4 6 5 4 3 2 5 6 4 6
18 19 20 21 21 22 21 18 16 16 15 14 16 17 15 12 7 2 2 3 6 3 4 3 2 3 0 1 2 1 2 3 6 6 5 6 6 5 3 2 2 1 0 3 2 2 1 3 2 0 2 4 3 4 5 8 9 8 9 10 8 4 3 2 3 4 5 4 2 4 7 5 5 6 5 5 5 6 6 4 3 4 4 2 7 7 7
18 18 19 20 21 21 20 16 12 13 13 13 16 16 12 8 5 3 2 1 2 2 4 4 3 2 0 2 3 3 3 3 1 4 4 4 5 5 3 3 4 1 2 4 2 3 3 1 2 3 3 4 2 3 3 6 9 9 10 11 7 4 4 1 1 2 1 0 4 5 3 5 8 10 7 4 5 7 5 4 3 2 4 6 9 13 14
17 18 18 19 20 21 20 16 10 10 11 13 16 15 11 8 4 3 2 3 1 2 3 4 4 2 2 2 2 3 3 2 2 0 3 3 4 4 3 5 5 2 3 4 3 3 4 3 3 5 3 5 4 1 1 3 6 7 7 6 4 4 4 3 4 3 3 3 5 5 4 5 11 14 8 3 5 7 6 5 4 2 5 5 9 16 17
16 17 17 18 19 20 20 16 11 7 7 10 14 15 12 6 4 5 4 4 3 3 5 6 5 4 3 2 2 3 4 4 3 2 2 3 3 2 1 3 4 4 4 4 3 2 2 3 2 2 3 2 4 3 1 3 2 4 4 4 3 4 6 4 5 7 5 2 6 5 5 8 2 5 3 1 5 7 7 8 9 5 4 8 11 13 14
16 16 16 17 18 20 20 17 11 6 7 9 9 11 12 9 5 4 4 3 3 3 3 3 4 6 5 2 3 5 5 5 4 4 4 2 1 3 3 2 4 5 4 4 4 4 2 1 2 1 1 2 3 3 2 3 1 3 2 3 2 2 4 5 3 4 4 3 5 5 5 6 4 3 2 1 4 6 7 10 9 2 10 14 14 13 12
15 15 15 16 17 18 19 18 13 7 7 11 9 7 11 12 8 6 7 4 3 2 2 2 1 3 1 1 4 5 5 6 5 4 7 6 3 2 3 2 4 6 4 3 3 3 3 2 3 2 3 3 2 1 2 2 1 2 2 2 1 1 2 4 5 7 5 5 5 5 6 5 4 4 3 1 5 7 5 6 5 2 11 15 16 16 11
14 14 14 14 15 17 18 18 16 11 9 11 13 11 12 12 8 8 10 4 2 3 2 1 1 2 2 3 4 4 5 6 3 2 6 7 6 6 5 3 2 4 3 5 5 5 4 4 5 5 3 4 3 2 2 3 3 2 2 1 1 2 2 0 2 5 6 7 8 8 8 6 7 10 6 4 8 7 4 5 5 5 12 15 15 13 9
13 13 13 13 13 15 17 17 17 15 11 12 14 14 15 14 10 9 10 4 2 3 1 1 1 2 5 4 4 4 5 5 4 2 3 3 5 6 7 6 3 1 2 4 5 6 5 5 7 6 4 4 3 1 1 3 4 3 3 2 1 4 4 3 3 3 7 9 8 7 7 7 8 10 9 8 8 7 6 7 3 6 14 14 10 10 10
12 12 12 13 13 13 15 16 17 17 15 16 17 16 16 16 13 11 10 5 1 2 1 3 3 2 3 2 1 2 4 5 3 4 2 4 4 4 5 5 3 2 3 4 5 7 7 7 7 7 6 5 5 4 2 3 5 4 4 3 3 4 4 5 3 2 7 10 6 4 6 7 4 4 7 11 11 10 10 6 4 5 8 11 10 11 13
11 11 10 11 11 11 12 14 15 17 16 15 16 15 15 13 11 11 10 6 3 2 2 4 4 3 3 4 4 5 5 5 4 3 3 5 5 4 5 5 3 3 4 5 5 6 7 7 7 8 7 7 7 7 7 6 5 5 5 5 5 3 2 4 4 4 7 7 3 5 6 4 1 4 3 3 7 8 4 7 9 6 8 14 14 14 15
10 10 9 10 10 9 10 12 13 14 14 13 14 14 15 13 10 10 10 7 4 3 4 3 4 4 5 6 6 5 4 5 5 4 3 3 3 5 6 5 3 4 4 4 3 4 6 4 4 5 6 6 6 8 9 8 6 5 6 7 6 4 3 4 5 5 5 5 6 5 2 1 4 5 5 4 4 4 6 10 9 6 9 14 15 14 14
9 9 8 8 9 9 8 9 10 12 12 12 14 14 14 14 12 10 10 7 4 4 4 1 4 5 4 5 3 1 3 3 2 2 3 2 2 5 5 3 3 4 4 3 1 3 4 2 3 4 4 4 5 5 5 5 4 4 5 5 5 5 4 3 4 5 5 7 7 4 1 2 3 4 3 2 3 4 5 6 6 6 8 12 14 14 14
9 9 8 7 8 8 7 8 8 10 11 11 12 11 13 14 13 10 8 8 7 3 4 3 4 4 3 3 2 3 2 2 2 3 2 2 1 4 3 3 3 2 3 3 2 3 3 2 4 4 3 4 4 4 4 3 3 3 5 4 4 5 4 3 4 4 5 6 7 6 5 5 6 7 6 4 3 1 2 5 7 8 11 13 13 14 15
8 9 8 7 7 7 7 7 7 8 9 9 9 9 10 12 12 10 8 9 8 3 5 5 4 3 2 2 2 3 2 1 1 1 1 2 1 2 1 1 2 3 3 4 4 3 4 5 5 4 3 4 3 2 3 4 4 3 4 5 5 7 5 3 4 5 5 5 6 6 6 3 2 8 8 4 3 6 4 4 6 8 13 16 15 14 15
8 9 7 7 7 7 6 6 7 7 7 8 8 7 8 11 12 10 9 9 9 4 6 6 4 3 2 2 2 2 3 3 3 2 1 1 1 0 1 1 2 2 3 4 4 4 5 5 5 5 4 4 3 1 2 4 4 5 4 5 7 7 5 5 6 6 6 6 5 5 3 2 6 10 8 7 8 8 3 5 6 11 15 15 15 14 12
8 8 7 6 6 6 6 6 6 6 6 8 9 7 7 10 11 10 8 9 9 4 7 6 5 4 3 3 3 3 5 5 4 3 2 1 1 1 1 3 4 2 1 4 4 4 6 6 5 6 3 2 1 1 1 1 4 6 6 5 5 6 5 5 7 7 7 6 6 4 1 5 8 10 10 10 8 6 5 3 5 14 16 12 12 13 9
7 7 7 7 5 6 6 6 5 6 6 7 8 7 6 8 9 9 8 8 8 6 5 6 5 5 3 3 4 3 3 3 3 4 3 1 1 1 2 4 4 2 2 4 4 4 5 5 4 4 4 1 1 4 4 3 3 3 6 6 5 5 6 6 6 7 6 6 6 4 3 5 7 10 11 9 4 3 3 4 6 12 14 11 10 8 11
7 7 7 7 6 5 6 6 6 5 5 6 7 6 5 6 8 8 7 8 8 8 5 6 5 5 4 3 5 4 2 3 3 4 5 2 2 2 6 4 2 2 3 3 4 4 4 5 3 2 5 2 1 4 4 4 4 3 4 5 5 3 4 6 6 6 6 6 7 5 3 5 9 10 7 3 0 3 8 10 10 10 9 8 10 11 12
6 7 7 7 6 6 6 6 5 5 5 5 6 5 5 6 9 8 6 6 7 7 4 6 7 6 3 3 4 4 3 4 4 5 6 4 2 2 4 1 0 3 2 2 4 3 3 6 4 2 5 4 2 2 4 5 5 5 5 5 4 4 4 4 3 3 4 5 4 1 2 7 9 8 6 7 8 10 11 11 11 11 9 8 10 12 10
6 6 7 7 6 6 6 5 5 5 4 4 4 4 4 6 10 10 7 6 6 8 8 9 8 6 5 4 3 3 4 4 4 4 5 5 3 2 4 3 3 4 4 4 5 4 2 4 4 3 5 4 2 4 6 6 4 4 6 5 3 2 1 1 1 3 2 1 2 2 5 9 10 9 11 14 14 11 9 10 10 11 10 9 11 14 12
6 6 6 7 7 6 6 5 5 5 4 4 4 3 3 5 9 9 8 7 7 10 11 9 7 6 5 4 3 3 4 4 3 3 4 5 4 3 3 4 3 3 5 5 6 6 5 3 3 4 5 3 2 5 6 5 5 1 3 6 4 1 1 2 1 1 1 3 5 7 7 8 11 12 12 13 12 9 8 7 8 10 11 9 10 15 14
6 6 6 7 7 7 6 5 5 5 4 4 4 4 4 6 8 9 8 5 7 8 7 7 6 3 1 1 1 3 4 4 4 3 3 5 5 3 3 5 5 3 4 5 5 6 7 5 4 5 5 4 3 4 4 3 4 6 4 4 5 5 4 3 3 2 2 3 6 8 8 8 10 11 10 10 9 7 6 5 6 11 12 9 8 11 12
6 6 6 7 7 7 6 5 5 5 5 4 4 4 4 5 7 8 7 5 7 8 5 3 3 1 1 2 3 3 2 2 3 3 3 5 5 4 2 3 3 2 3 5 5 6 6 5 4 5 4 4 4 3 1 0 2 5 6 3 3 5 6 6 5 6 4 2 5 7 7 8 9 8 9 10 9 7 6 5 7 11 11 9 9 9 8
5 6 7 8 8 7 7 6 5 5 4 4 4 4 3 3 6 6 5 7 9 8 5 3 2 2 2 3 2 1 2 3 3 4 4 5 5 5 4 2 2 3 5 5 6 7 7 6 4 3 3 2 3 3 3 1 3 5 4 2 6 11 11 7 4 7 6 4 7 8 6 5 7 9 9 11 13 14 11 8 9 9 9 8 7 6 5
5 6 8 9 8 7 7 5 4 4 4 4 3 4 4 3 4 4 2 5 6 4 3 3 3 2 1 3 3 3 4 4 4 4 5 5 5 5 5 5 5 5 5 4 5 6 6 6 4 3 3 3 3 5 6 4 3 5 5 2 4 6 7 7 6 4 3 2 1 4 4 4 6 9 10 9 13 16 15 11 9 8 7 7 6 6 5
6 8 9 9 8 7 6 5 4 3 3 4 4 4 4 3 2 2 3 3 4 4 5 7 8 6 5 4 3 2 1 2 3 4 5 5 5 5 6 6 5 5 4 4 5 6 6 5 3 2 3 5 5 6 7 6 5 6 4 1 1 1 3 6 6 2 2 5 9 6 4 4 1 5 7 7 8 11 13 13 10 9 8 8 7 7 7
7 9 9 7 6 6 4 4 3 3 3 5 4 4 4 3 3 3 4 5 5 6 9 11 9 7 5 3 2 2 1 1 3 4 4 4 4 5 5 4 4 4 4 4 4 6 6 5 2 1 4 6 5 5 5 6 6 5 2 3 1 4 5 7 7 4 2 1 4 4 4 3 2 1 5 7 7 8 10 11 10 10 10 10 10 9 7
8 9 7 5 5 4 3 3 3 2 4 4 4 4 4 1 1 3 7 7 6 4 7 8 5 4 4 3 2 2 2 1 2 3 3 2 4 4 3 3 4 3 2 2 3 3 4 4 3 4 7 6 4 4 4 5 6 3 3 4 4 5 5 8 9 7 4 2 0 0 2 3 2 2 5 8 8 9 10 10 11 11 11 11 12 12 11
8 7 5 4 4 3 3 3 2 3 4 4 3 4 3 2 2 6 11 9 4 2 6 8 6 4 4 3 3 2 2 2 3 4 4 3 3 3 3 3 5 3 2 2 3 4 4 4 3 3 4 5 4 4 4 5 6 4 3 4 5 6 6 9 11 10 8 6 5 5 5 5 5 5 7 9 11 11 11 10 11 12 12 10 9 10 11
8 6 4 4 3 3 3 3 2 3 3 3 3 3 3 3 6 10 12 8 2 1 5 7 6 3 2 3 3 3 2 2 2 4 5 4 3 4 4 5 4 3 3 4 5 4 4 4 4 4 5 7 6 4 4 5 7 6 6 7 7 6 7 9 10 10 9 8 7 7 6 7 9 10 10 10 12 13 12 11 11 11 13 13 11 9 8
6 5 4 3 3 3 2 1 1 2 3 4 3 2 3 6 8 8 8 5 2 4 6 6 5 3 2 3 3 3 3 3 3 2 3 4 3 4 4 4 4 3 3 4 4 2 1 3 4 4 4 7 7 4 4 6 7 8 9 9 8 8 9 10 10 9 8 9 10 9 8 9 11 12 12 11 12 12 12 12 11 10 12 13 11 9 6
5 4 4 3 2 2 1 1 2 2 3 5 4 2 6 10 9 6 5 3 2 5 7 6 5 3 2 3 3 4 4 3 2 1 2 3 3 4 4 3 4 3 3 2 3 3 3 3 4 2 3 6 8 6 5 7 8 8 7 6 6 8 9 8 8 9 10 11 10 10 9 10 10 12 12 12 12 13 13 14 13 12 11 10 10 10 10
4 3 3 2 2 1 1 1 2 3 2 2 2 6 10 11 9 7 5 2 2 5 6 6 6 4 1 1 2 3 4 4 2 3 3 2 2 3 3 3 2 2 2 2 5 5 3 2 3 2 2 4 6 5 5 7 7 6 5 5 5 7 8 7 8 10 10 10 10 10 10 10 10 12 13 12 13 15 16 16 15 14 13 12 11 12 13
3 3 2 1 1 1 0 2 4 4 2 2 5 9 11 9 7 7 6 4 4 4 5 6 5 3 3 2 1 2 4 4 3 3 3 1 1 3 4 3 2 2 2 3 4 4 2 2 2 2 2 4 5 5 6 6 5 3 3 3 3 5 6 6 7 9 8 7 8 8 9 10 11 12 13 13 15 16 17 17 18 17 16 16 14 14 14
3 3 2 1 0 2 2 0 1 2 3 6 10 12 10 6 4 4 4 5 6 5 6 6 5 4 6 5 2 1 3 2 1 1 2 2 3 4 4 3 2 1 3 3 2 2 3 4 5 4 3 1 4 9 10 9 9 8 7 8 9 10 12 10 8 8 7 7 8 8 8 10 11 10 11 13 15 17 18 19 19 19 18 17 16 15 14
2 3 2 0 2 5 4 3 5 7 9 10 9 8 5 3 3 3 4 4 5 6 7 5 5 9 11 6 2 2 3 4 2 2 1 1 4 4 2 1 1 0 3 3 1 3 3 4 4 5 3 5 11 13 10 9 10 11 11 10 10 11 12 12 13 14 12 9 8 8 8 10 11 10 11 13 15 17 18 19 19 20 19 17 16 16 15
1 1 2 3 3 4 4 5 7 9 10 8 5 3 3 3 4 4 5 5 5 6 6 5 6 10 10 4 2 2 3 5 5 3 2 0 1 2 2 2 1 1 4 3 1 3 4 4 3 2 2 5 7 9 9 10 12 13 11 10 10 11 12 11 12 15 15 14 16 16 12 10 10 10 11 12 14 16 17 17 18 19 19 18 18 18 17
3 4 5 4 2 3 6 8 7 5 4 3 4 5 4 4 5 3 3 4 4 4 3 3 6 6 5 4 3 2 3 5 4 3 2 1 0 1 3 1 0 2 5 2 1 1 3 3 2 1 2 3 4 7 9 11 11 10 9 9 10 11 11 11 11 12 13 14 17 20 17 13 12 12 11 11 13 14 15 16 17 18 18 19 20 20 18
4 5 4 4 3 4 5 6 5 3 3 4 4 4 3 4 5 4 2 2 2 2 2 3 3 1 2 6 6 2 2 3 4 3 3 1 1 2 4 1 1 3 4 1 1 1 1 2 2 1 2 4 6 8 9 10 9 9 9 10 11 12 12 12 12 12 13 14 16 17 17 14 12 11 11 12 14 13 12 14 18 21 21 19 18 19 18
7 8 7 7 7 6 5 4 3 3 4 4 2 3 4 4 3 2 2 2 1 1 3 4 3 1 3 6 4 2 2 2 3 4 3 0 1 2 3 1 1 3 3 1 1 1 2 2 1 2 4 7 8 8 8 8 8 8 9 11 12 12 12 12 12 12 12 14 14 15 15 15 13 11 12 13 14 14 12 12 16 21 23 20 17 17 18
4 6 6 7 6 6 5 4 4 3 2 2 1 2 4 3 1 1 2 3 3 2 3 4 4 3 3 2 0 1 2 1 2 4 3 0 1 2 3 2 1 2 4 4 2 1 2 2 1 2 3 4 5 6 7 7 8 9 10 11 12 12 12 12 13 12 11 12 12 12 14 15 14 14 14 14 15 17 17 15 16 18 21 21 19 18 19
1 3 3 4 4 3 2 2 3 2 1 2 3 3 3 3 1 1 1 2 2 2 5 5 4 4 3 4 5 4 2 1 2 4 2 1 1 2 3 3 3 3 4 4 1 1 1 1 1 2 2 3 5 7 7 8 9 11 11 12 12 12 13 13 13 13 12 11 11 11 11 13 13 14 14 13 13 15 16 16 16 17 19 22 22 20 20
2 3 2 2 2 1 0 1 3 3 2 3 4 2 2 2 1 1 3 4 2 6 8 7 4 3 3 2 4 4 2 1 2 2 2 2 3 3 2 2 2 3 3 3 2 2 1 0 1 1 4 7 9 9 9 9 10 11 12 12 12 13 13 13 13 14 14 12 11 10 10 11 12 12 12 12 11 11 11 13 15 16 18 22 23 22 22
5 6 3 2 2 2 2 2 2 3 4 5 3 0 2 2 1 2 6 9 6 5 7 5 2 2 2 2 2 3 3 2 2 1 2 3 3 3 3 2 1 1 2 4 4 3 1 1 1 3 6 8 8 8 9 11 11 12 12 13 14 14 13 13 13 14 13 12 11 11 11 10 10 11 11 12 12 12 12 12 14 15 18 21 22 20 21
6 6 4 3 3 4 5 6 7 6 4 1 3 2 0 3 4 5 5 6 6 2 1 1 2 2 2 2 3 3 3 2 2 2 2 3 3 2 2 2 1 0 1 4 4 2 2 3 5 7 8 9 10 10 11 12 13 14 14 15 15 15 15 14 14 14 13 13 13 12 12 11 10 10 11 11 12 13 13 12 12 14 18 22 23 19 19
7 6 4 3 3 4 5 5 6 7 5 3 3 1 2 2 2 2 2 2 4 5 3 2 2 3 2 2 4 4 1 1 1 2 1 2 3 1 1 3 3 2 2 2 2 0 2 5 7 8 9 10 11 12 13 13 14 15 15 15 16 17 16 16 15 13 12 13 13 12 12 11 10 10 11 11 11 12 12 11 11 13 15 20 22 21 20
7 6 5 4 5 8 9 7 5 5 5 3 2 4 4 3 3 3 2 2 4 5 3 1 2 4 3 2 4 5 2 1 1 2 1 2 3 2 2 4 5 3 2 1 2 4 5 7 8 10 11 12 12 13 14 15 17 18 17 17 18 17 16 16 15 14 12 12 13 13 13 14 13 12 12 12 11 10 11 9 10 11 13 17 20 20 19
8 8 8 8 8 9 11 9 5 4 6 8 7 5 4 4 4 3 3 4 5 4 2 1 2 3 3 2 3 3 2 1 2 2 3 3 3 3 4 5 5 4 3 4 6 8 8 9 10 10 11 12 14 15 17 18 19 19 18 18 18 17 16 16 16 15 13 12 12 12 13 14 14 14 14 13 12 11 10 9 9 11 13 17 19 17 18
6 8 10 12 12 11 11 8 3 2 5 9 9 5 4 5 4 2 5 7 5 2 1 2 1 1 2 3 2 2 2 1 2 3 4 4 3 3 5 5 4 5 5 6 7 7 8 9 10 10 10 12 14 16 17 19 19 19 18 16 16 16 17 16 15 15 14 13 13 12 12 11 13 14 15 16 15 12 9 8 8 8 11 17 19 17 17
6 7 9 11 14 15 13 7 1 1 3 8 9 6 5 6 5 2 4 5 2 0 2 5 3 1 2 2 2 2 3 3 2 3 4 3 2 3 5 4 3 3 2 3 5 7 9 9 9 9 9 11 13 15 17 18 19 19 18 16 15 16 17 16 14 14 14 13 13 12 12 12 13 14 14 15 17 15 11 9 8 6 8 13 17 17 16
Wind_Direction
353 353 351 351 353 354 355 353 349 350 350 336 320 320 304 277 250 74 69 205 229 270 275 251 289 29 22 320 11 359 319 339 0 359 329 319 292 246 249 338 359 24 141 195 213 221 58 35 12 56 91 57 30 10 325 313 289 294 328 335 2 4 268 277 310 184 172 130 134 208 251 290 282 236 223 234 222 220 234 288 325 267 130 109 118 126 135
352 354 353 351 354 355 356 354 350 351 350 345 341 333 316 307 336 68 92 202 252 275 302 326 66 70 6 287 117 89 334 354 348 2 15 348 337 358 22 46 350 359 15 321 274 113 95 89 326 5 109 92 29 8 354 344 350 25 12 350 347 332 256 242 255 216 203 182 170 222 227 252 249 204 209 250 251 287 317 334 342 301 208 137 129 117 137
351 353 353 352 355 357 357 356 350 349 348 345 342 332 318 317 316 284 157 211 246 292 9 354 31 79 48 24 70 173 120 38 324 325 354 351 343 347 8 1 310 2 40 299 343 65 159 212 211 263 85 95 49 19 13 358 10 30 5 338 331 319 302 292 253 231 208 192 231 236 207 213 247 228 229 259 278 310 320 319 296 286 307 94 122 125 136
350 353 354 353 356 358 359 357 349 348 346 339 341 332 311 298 293 259 191 208 223 55 20 342 8 37 207 54 11 333 40 81 268 291 316 354 341 329 356 332 290 244 214 239 197 195 224 152 173 214 147 120 94 29 26 15 12 10 354 342 335 312 314 13 70 317 337 49 306 294 204 191 223 231 236 258 276 276 274 291 308 4 44 70 120 139 144
350 353 355 355 357 359 0 357 349 351 350 345 346 332 299 284 319 358 7 342 16 82 16 2 32 17 334 20 354 337 4 41 108 39 331 340 310 303 344 317 300 337 285 254 188 204 211 154 196 220 148 106 101 46 354 49 19 346 339 341 336 310 292 175 158 252 293 355 330 319 335 284 227 212 210 222 259 275 274 256 264 16 58 90 137 145 147
350 353 356 356 358 1 2 1 356 357 11 3 345 328 313 312 12 30 6 328 346 31 13 10 41 36 8 1 328 350 22 14 28 62 1 318 286 289 331 299 313 7 351 342 23 325 239 168 190 163 114 119 150 168 163 87 32 306 327 2 351 306 283 241 190 209 217 305 316 294 320 332 300 165 149 213 236 257 269 255 265 312 73 135 154 150 145
350 353 356 357 0 3 3 5 7 15 37 23 341 326 341 355 23 31 359 333 2 31 3 346 50 47 11 359 10 8 30 42 34 26 353 344 51 342 325 343 354 349 6 35 27 4 19 334 306 50 35 281 193 167 134 120 174 283 340 30 17 308 305 317 309 268 228 245 284 280 293 333 12 109 125 334 264 248 251 256 270 350 109 137 150 145 138
351 352 356 359 2 5 6 8 10 13 30 24 13 13 6 0 10 2 337 346 15 351 279 275 104 100 296 312 43 14 13 41 50 27 357 4 50 353 313 31 18 338 358 73 95 76 65 318 316 8 355 325 316 2 33 90 106 315 323 16 47 271 332 360 330 308 283 241 235 259 274 297 306 258 217 246 271 265 267 259 260 109 120 138 142 136 131
350 352 357 0 3 8 10 12 15 12 18 24 25 27 9 357 8 353 332 338 346 310 298 275 293 101 90 33 34 25 32 34 12 27 23 5 11 13 354 2 353 329 14 61 71 66 45 1 8 16 3 357 357 23 27 353 345 350 306 337 345 276 272 292 266 273 273 246 214 225 248 257 268 262 244 224 239 247 250 241 238 150 134 143 147 141 135
350 353 358 1 4 11 13 16 21 21 27 40 34 22 8 0 8 357 335 315 225 264 267 96 356 48 68 50 15 11 53 53 353 355 64 38 13 11 354 342 326 300 74 64 34 14 357 356 359 345 334 345 337 341 66 317 311 326 345 13 307 287 293 283 254 248 264 249 217 217 241 238 245 251 239 226 231 239 233 225 216 131 143 151 155 145 137
350 352 358 2 3 11 16 19 24 25 32 46 41 22 6 359 356 347 332 314 260 283 339 50 44 60 79 75 50 21 61 79 41 352 32 62 46 18 0 358 349 359 43 26 343 316 306 307 307 304 302 295 285 279 270 268 266 274 308 318 274 270 279 284 282 267 267 258 218 193 233 234 243 257 233 219 214 226 231 196 100 88 139 143 139 141 145
350 352 358 4 4 9 17 20 26 29 31 44 47 24 3 2 358 340 329 319 319 350 53 56 44 43 54 54 48 39 48 69 62 26 24 47 40 30 39 34 8 17 13 340 306 281 275 269 259 263 265 258 256 258 256 257 247 235 245 263 271 266 242 266 274 259 270 273 215 200 231 238 12 27 4 227 207 215 203 116 93 86 124 131 134 144 153
350 354 357 5 5 7 17 18 24 31 28 37 52 30 1 5 13 353 343 332 317 9 45 73 72 52 50 59 51 40 46 49 49 50 51 52 44 42 47 38 18 18 348 315 300 285 273 241 225 252 250 236 242 246 240 236 229 224 227 236 254 264 239 245 250 241 253 255 223 217 233 96 77 57 42 45 80 109 110 102 92 94 127 136 143 151 156
349 356 356 3 5 4 16 18 18 28 26 30 45 33 3 7 20 5 351 336 323 14 21 54 94 63 46 61 54 170 130 83 54 71 46 16 47 59 50 30 14 1 328 313 288 269 269 223 207 227 208 206 220 220 222 218 203 222 241 226 229 255 268 267 244 224 234 246 233 208 151 177 169 131 117 107 86 97 130 131 118 122 138 142 147 154 154
346 356 354 358 3 2 11 16 14 24 26 26 39 30 3 7 18 6 344 326 316 360 34 25 46 40 40 63 349 276 192 146 177 131 86 328 18 57 43 15 8 345 317 312 284 265 274 266 248 226 196 219 220 175 169 179 162 208 248 238 214 230 251 289 274 226 213 244 248 222 214 234 208 163 158 201 217 153 143 157 151 151 153 150 151 155 156
341 351 351 354 358 358 6 12 10 17 19 22 40 33 3 5 17 9 354 331 313 336 55 34 4 334 321 57 357 294 288 331 330 120 157 207 136 78 55 355 345 329 315 293 269 268 268 254 257 256 219 221 234 167 159 173 158 172 230 237 222 222 227 252 273 253 221 231 250 229 224 262 158 141 141 162 139 94 102 187 186 168 164 165 166 166 172
335 344 350 352 351 352 0 7 6 11 12 7 19 26 8 7 15 13 2 337 315 340 53 30 336 313 322 16 39 308 304 334 334 294 241 106 78 185 164 306 286 282 315 294 262 254 260 249 254 261 224 181 190 207 165 185 188 173 191 225 223 218 218 215 230 250 242 232 237 233 225 90 113 124 124 120 109 106 156 221 187 168 170 174 176 177 188
328 339 346 347 348 349 352 0 2 4 8 3 6 17 6 0 8 11 1 337 318 341 51 29 345 351 358 328 345 346 327 326 311 265 211 169 237 210 37 322 288 213 207 287 273 258 263 260 258 268 270 88 83 248 171 222 233 191 173 199 217 211 214 215 224 238 239 236 238 233 113 109 133 136 130 127 124 150 204 223 148 158 161 166 182 178 162
320 332 341 345 347 346 347 353 357 357 1 1 8 19 3 349 360 3 354 347 331 329 27 35 1 2 6 304 303 325 316 312 303 282 267 222 115 28 294 276 272 252 245 269 277 272 264 263 269 279 282 34 18 269 243 226 254 209 173 192 213 207 205 213 226 237 239 242 239 220 131 122 143 138 130 136 158 191 157 93 114 146 150 157 172 139 100
316 328 338 342 343 343 343 345 347 353 359 354 359 19 9 345 355 2 355 351 333 316 349 31 5 355 8 331 321 327 310 298 287 280 297 358 70 294 272 232 196 262 264 254 272 282 271 272 293 297 274 272 18 303 266 232 247 232 185 208 217 198 211 218 213 223 237 238 234 221 165 150 157 149 133 122 260 119 110 101 103 116 127 142 137 107 91
314 325 331 338 342 342 337 336 337 346 359 353 353 21 24 341 339 347 341 330 315 302 331 3 344 332 338 336 336 332 318 321 322 305 314 348 49 285 300 349 229 285 326 323 287 290 297 299 317 334 295 302 353 305 276 257 239 200 189 236 242 210 230 243 218 230 244 232 232 239 145 142 146 145 116 92 103 116 118 115 113 112 113 116 115 111 106
311 321 325 331 338 338 332 329 326 329 343 347 343 15 28 340 326 327 325 315 295 281 293 312 314 306 300 304 312 307 300 316 332 316 303 310 315 294 301 299 269 290 340 337 294 287 315 312 314 315 308 315 315 293 294 281 252 180 173 219 249 226 242 352 351 316 324 81 99 113 147 138 118 103 100 107 116 119 112 116 128 133 138 139 128 122 120
305 315 321 326 331 333 329 324 321 317 324 333 327 330 338 316 312 320 327 314 291 283 284 284 278 272 267 258 256 275 284 289 296 291 279 281 282 278 301 333 350 329 329 329 317 315 319 318 308 298 306 319 302 309 312 288 280 317 172 209 227 236 49 34 325 283 117 118 117 117 134 136 120 115 114 115 120 123 118 129 140 133 135 147 140 131 134
300 310 317 321 324 324 321 320 319 311 306 313 314 310 315 314 316 330 337 312 289 294 285 258 249 253 228 188 271 288 282 263 258 256 240 253 263 274 331 356 6 353 334 340 338 318 304 303 294 281 296 340 340 319 318 290 307 349 346 259 233 215 208 227 250 232 179 165 157 154 162 154 136 137 139 128 120 121 129 148 138 123 123 128 129 132 139
297 306 315 318 319 319 319 318 313 304 302 306 305 305 318 325 322 331 348 337 304 304 304 264 223 144 42 334 293 282 287 258 246 249 232 234 253 269 304 342 345 321 313 320 317 303 291 290 290 277 289 353 5 332 324 327 310 331 337 329 310 286 256 231 218 220 220 168 144 153 165 162 160 165 161 150 142 131 120 123 128 124 124 124 123 133 148
297 307 315 317 318 318 316 314 307 300 295 293 297 301 304 316 314 319 345 342 308 285 282 299 279 232 295 319 302 256 299 289 253 247 237 228 240 252 256 282 303 280 276 282 291 296 291 285 293 293 290 338 354 314 298 271 269 284 288 316 325 311 299 288 250 224 216 169 145 151 156 170 192 202 193 175 164 151 137 133 136 131 126 128 133 146 166
302 314 317 318 319 317 314 311 302 296 292 288 299 303 291 303 319 311 319 337 318 277 239 280 286 246 271 314 309 289 291 284 257 242 239 238 239 245 250 256 266 276 289 294 285 287 289 287 292 302 300 310 307 282 275 271 271 275 270 291 334 317 299 308 309 253 231 331 21 168 188 208 202 208 214 196 167 156 153 156 167 172 167 162 162 160 155
312 320 319 319 319 314 311 309 297 289 292 289 291 295 290 303 328 289 270 318 336 322 298 290 291 299 302 293 279 265 266 276 260 245 243 244 240 245 257 262 268 287 318 324 291 282 281 279 292 337 320 307 291 268 264 264 263 264 256 216 32 331 270 300 316 278 231 341 0 6 332 316 218 201 215 196 162 160 160 157 168 188 186 178 184 183 173
319 321 319 318 317 314 309 305 297 293 299 299 297 297 301 341 11 319 302 328 340 317 298 288 283 286 292 280 239 214 224 275 274 263 266 275 268 263 269 279 287 305 329 326 297 293 295 293 292 262 268 278 285 278 269 262 257 256 207 145 216 285 293 300 308 296 236 329 24 24 346 337 23 200 212 191 176 178 171 161 170 187 190 189 189 187 193
322 322 320 316 314 311 301 292 292 299 297 297 305 293 270 237 144 251 277 308 327 301 288 292 289 278 275 268 242 228 230 257 281 265 252 269 277 268 260 273 276 274 305 320 293 294 311 310 295 263 252 251 263 275 268 267 267 255 126 142 216 258 286 291 290 288 278 263 107 187 270 290 291 214 196 188 185 186 186 187 189 193 204 209 192 178 188
322 321 319 315 309 299 293 290 292 301 298 290 305 307 277 199 202 261 279 298 318 281 276 284 283 276 268 245 219 230 241 249 273 267 243 233 280 289 271 275 284 271 261 281 267 254 260 251 235 260 256 233 238 263 261 265 272 255 173 179 221 239 261 275 277 274 267 258 250 244 250 261 261 237 206 190 183 181 185 194 197 195 203 214 207 198 204
326 323 318 315 309 297 302 308 300 308 318 306 284 283 282 278 284 290 296 303 307 274 286 280 269 270 269 230 220 232 235 220 233 266 261 252 287 312 285 268 283 299 293 281 268 257 261 242 220 229 232 218 223 255 258 253 262 260 243 234 232 235 249 258 262 265 263 253 244 241 243 241 241 241 228 199 184 184 189 197 203 198 192 197 212 224 216
328 324 320 322 323 315 322 352 344 345 15 10 344 306 318 324 314 302 304 309 272 257 274 277 274 266 211 205 209 194 205 233 236 250 262 249 262 303 294 271 276 285 277 277 271 240 223 243 242 235 213 211 223 249 257 249 255 260 251 235 223 227 237 238 239 246 251 247 237 231 236 239 235 235 234 218 204 202 202 203 203 188 175 187 212 227 212
328 332 337 337 336 331 351 48 28 34 40 27 16 310 312 328 326 305 303 330 295 256 246 246 268 271 192 182 193 189 209 254 256 226 240 232 238 279 287 272 268 259 236 253 270 249 225 239 247 219 182 213 235 253 264 260 259 256 246 232 227 238 243 238 237 243 246 248 247 240 239 240 233 227 229 225 215 207 202 204 204 187 172 185 207 213 213
329 344 351 350 359 9 47 58 13 353 347 354 257 265 294 314 311 289 285 304 285 267 246 236 255 275 265 224 202 205 234 252 220 216 238 217 210 261 263 241 247 249 226 241 249 242 226 207 217 214 186 204 218 226 244 260 262 247 235 236 238 242 242 238 245 250 243 239 244 245 241 240 237 231 227 220 212 205 201 204 205 194 182 189 200 203 208
335 348 354 13 48 46 57 28 5 349 337 266 264 282 300 305 288 278 279 259 248 272 286 281 280 293 305 313 103 159 256 255 226 245 268 235 216 248 241 238 247 207 200 245 261 257 256 223 222 246 235 217 232 260 278 294 311 298 276 306 319 294 284 272 257 253 244 235 242 247 242 242 243 240 234 226 219 213 208 208 210 207 200 200 205 208 207
343 335 333 26 314 287 283 341 328 292 281 277 283 294 305 303 283 286 284 259 246 252 275 293 303 300 300 319 47 82 286 280 243 304 315 323 307 282 254 269 316 195 213 250 253 223 245 247 245 257 259 271 8 4 356 353 5 15 11 10 6 350 344 343 325 299 280 252 244 246 246 247 249 244 238 232 224 217 215 213 214 215 214 211 211 211 208
345 342 343 314 283 292 284 221 229 270 295 299 295 299 305 284 263 258 235 225 235 240 241 261 289 284 285 302 30 33 325 318 311 322 351 322 307 307 287 278 337 231 274 290 140 157 225 252 243 257 298 33 46 41 30 19 25 30 27 19 10 359 358 359 345 329 321 307 291 282 266 254 253 248 240 235 229 222 221 220 218 217 217 216 212 210 210
17 341 316 277 274 300 307 279 268 287 307 310 293 278 261 232 232 236 209 192 210 232 223 222 261 277 287 313 55 57 340 315 304 324 16 14 284 327 327 326 77 231 277 291 133 173 242 258 223 219 352 25 42 47 42 38 42 42 32 21 13 5 1 359 347 335 329 321 314 311 303 284 274 266 251 240 235 228 221 221 221 219 217 216 213 210 209
344 307 297 291 302 325 315 305 303 315 326 297 251 247 248 232 225 230 204 194 222 242 223 231 264 287 317 329 309 315 335 317 308 327 350 358 88 319 301 303 81 276 280 296 77 167 268 291 306 353 55 47 44 42 36 32 36 36 21 5 359 354 350 349 345 336 324 313 309 312 317 319 310 295 272 251 244 237 224 218 218 217 216 218 217 213 209
301 285 279 284 297 301 299 306 316 318 289 263 244 239 245 234 222 221 228 241 249 238 216 234 253 281 294 278 275 297 16 326 306 305 304 283 151 278 289 279 177 277 293 336 124 198 253 303 316 349 66 52 45 41 31 19 15 10 356 345 344 344 340 336 334 331 323 317 315 315 318 321 319 307 287 267 255 247 233 224 223 222 221 221 220 215 211
248 254 264 279 291 294 292 290 279 260 258 259 249 248 255 245 218 215 249 250 218 197 227 236 233 219 252 269 287 3 36 331 298 289 287 260 136 273 295 302 222 270 308 351 162 242 304 315 330 57 46 33 30 28 18 6 358 349 341 338 338 338 336 331 328 326 323 322 323 322 320 318 312 298 285 273 261 251 241 231 228 228 226 225 223 218 211
250 268 277 279 276 273 269 257 239 233 259 270 249 263 263 249 213 345 254 210 182 195 217 207 209 234 243 227 229 342 337 322 283 268 262 229 132 247 273 284 270 293 323 333 338 30 359 334 359 74 74 52 33 19 4 354 344 336 335 336 333 331 331 327 324 323 321 320 322 324 324 321 311 292 278 270 264 258 253 247 242 235 227 222 220 218 210
326 308 289 276 266 261 269 250 214 201 252 253 229 236 250 233 212 290 258 185 150 222 229 214 216 249 240 177 176 205 222 220 251 263 264 243 242 252 268 295 317 334 337 327 316 110 77 15 16 70 78 30 6 357 351 347 342 337 334 334 332 331 330 327 325 324 321 319 321 323 322 322 319 307 291 275 263 257 255 255 255 247 231 221 220 217 208
269 261 258 296 301 280 281 254 220 206 229 241 229 237 290 304 13 358 285 273 215 182 195 209 229 260 260 197 185 202 216 184 197 232 259 265 274 289 304 320 339 346 328 309 315 12 51 71 261 330 1 357 350 348 350 349 346 342 338 335 335 334 331 329 329 327 321 317 319 320 317 315 317 316 308 293 277 268 261 256 257 252 236 225 223 217 203
258 250 239 279 279 235 230 255 232 222 237 239 226 158 3 324 271 202 246 266 261 178 169 191 239 262 273 270 222 215 228 219 207 240 283 279 288 316 332 339 6 6 304 309 335 7 30 190 151 41 15 357 347 347 350 347 342 338 334 332 330 329 326 324 324 321 318 317 319 319 316 311 307 308 310 303 290 280 270 258 256 254 238 225 221 216 200
275 267 259 276 271 234 222 228 236 251 277 353 80 88 163 253 240 213 218 259 294 324 82 267 275 256 254 272 259 234 214 212 252 306 310 294 299 326 339 326 331 68 331 334 350 2 348 11 39 37 16 356 348 347 344 340 336 332 329 326 323 320 319 320 319 316 314 315 315 313 311 308 303 301 305 305 298 290 280 263 255 258 245 228 222 219 203
281 274 257 259 253 235 235 245 262 282 308 30 95 188 262 293 302 281 230 243 289 303 315 326 306 289 263 257 270 270 222 157 271 292 293 297 303 317 318 312 330 56 62 340 330 74 36 22 24 18 4 357 355 349 343 339 335 331 326 321 318 316 315 313 312 311 310 310 310 308 306 305 302 297 296 294 293 296 291 267 249 256 250 233 226 223 205
282 278 263 260 262 265 276 294 309 297 290 278 226 242 266 282 277 265 243 242 274 281 285 326 324 311 307 302 300 301 305 89 350 332 327 309 304 303 315 325 340 21 55 344 19 50 40 20 10 6 3 0 357 352 348 344 340 337 333 326 319 318 316 311 308 309 309 308 308 308 305 302 299 298 296 290 283 289 295 277 249 245 240 225 220 218 200
262 259 255 256 263 277 290 303 322 337 324 321 319 308 290 278 268 251 240 251 267 279 283 278 300 306 304 297 300 305 320 2 345 314 310 322 332 337 334 334 344 7 28 32 34 32 23 11 5 4 4 2 1 1 358 351 345 342 337 330 324 321 316 308 306 308 309 307 308 309 308 304 299 293 290 287 280 278 280 274 258 245 229 213 205 200 192
249 251 252 249 250 262 280 293 321 4 316 304 307 315 308 296 294 262 246 257 270 307 327 297 295 304 289 281 284 311 324 322 297 303 327 356 3 339 331 344 8 26 34 36 31 25 24 25 18 9 5 6 6 4 360 355 351 347 342 338 335 331 323 314 311 313 313 312 312 309 305 303 300 292 284 281 278 270 261 259 258 242 220 208 198 191 190
239 253 266 264 260 264 274 285 326 105 273 290 300 304 295 298 309 286 251 262 279 53 297 297 295 252 259 289 302 295 283 277 294 330 350 19 40 3 352 4 18 15 9 25 38 44 49 46 30 14 10 10 7 4 1 358 357 355 352 348 343 339 336 333 329 324 320 319 319 313 303 298 299 295 288 283 282 274 259 241 229 211 199 198 193 186 180